GCFIZ EGHQ-EGHH

Flight info

Callsign GCFIZ
Flight time 1h 12m
Altitude 3500
Route EGHQ EGHD EGTE EGHH
Aircraft C172/L-G/L

Departure

Time 2026-05-05 17:54
Airport Cornwall Airport Newquay (EGHQ)

Arrival

Time 2026-05-05 19:06
Airport Bournemouth Airport (EGHH)
Time Latitude Longitude Altitude Speed Heading
2026-05-05 17:32 50.44460 -4.99665 393 ft 0 kts 156°
2026-05-05 17:49 50.44447 -4.99668 393 ft 6 kts 207°
2026-05-05 17:49 50.44404 -4.99749 393 ft 11 kts 248°
2026-05-05 17:49 50.44349 -4.99709 393 ft 14 kts 122°
2026-05-05 17:49 50.44288 -4.99547 393 ft 13 kts 117°
2026-05-05 17:50 50.44220 -4.99489 393 ft 9 kts 179°
2026-05-05 17:50 50.44169 -4.99489 393 ft 0 kts 180°
2026-05-05 17:53 50.44160 -4.99489 393 ft 7 kts 178°
2026-05-05 17:53 50.44095 -4.99556 393 ft 20 kts 284°
2026-05-05 17:53 50.44256 -5.00024 398 ft 68 kts 300°
2026-05-05 17:54 50.44510 -5.00694 565 ft 70 kts 303°
2026-05-05 17:54 50.44867 -5.01252 744 ft 74 kts 317°
2026-05-05 17:54 50.45274 -5.01801 927 ft 79 kts 319°
2026-05-05 17:54 50.45779 -5.02222 1106 ft 84 kts 352°
2026-05-05 17:55 50.46361 -5.02005 1285 ft 88 kts 34°
2026-05-05 17:55 50.46763 -5.01238 1464 ft 91 kts 67°
2026-05-05 17:55 50.46938 -5.00256 1645 ft 94 kts 77°
2026-05-05 17:55 50.47036 -4.99208 1825 ft 96 kts 86°
2026-05-05 17:56 50.47061 -4.98125 2006 ft 97 kts 92°
2026-05-05 17:56 50.46952 -4.97067 2183 ft 97 kts 104°
2026-05-05 17:56 50.46766 -4.96019 2362 ft 98 kts 106°
2026-05-05 17:56 50.46574 -4.94985 2538 ft 98 kts 106°
2026-05-05 17:57 50.46383 -4.93955 2714 ft 96 kts 107°
2026-05-05 17:57 50.46199 -4.92965 2884 ft 90 kts 106°
2026-05-05 17:57 50.46026 -4.92034 3050 ft 88 kts 106°
2026-05-05 17:57 50.45829 -4.90987 3027 ft 107 kts 106°
2026-05-05 17:58 50.45605 -4.89787 3020 ft 117 kts 107°
2026-05-05 17:58 50.45365 -4.88506 3017 ft 123 kts 107°
2026-05-05 17:58 50.45117 -4.87175 3015 ft 126 kts 107°
2026-05-05 17:58 50.44869 -4.85846 3015 ft 127 kts 107°
2026-05-05 17:59 50.44618 -4.84502 3014 ft 128 kts 107°
2026-05-05 17:59 50.44367 -4.83166 3014 ft 128 kts 107°
2026-05-05 17:59 50.44068 -4.81829 3013 ft 128 kts 106°
2026-05-05 17:59 50.43892 -4.80574 3013 ft 128 kts 100°
2026-05-05 18:00 50.43784 -4.79182 3013 ft 128 kts 95°
2026-05-05 18:00 50.43723 -4.77787 3013 ft 126 kts 94°
2026-05-05 18:00 50.43682 -4.76421 3013 ft 122 kts 93°
2026-05-05 18:00 50.43651 -4.75098 3013 ft 121 kts 92°
2026-05-05 18:01 50.43623 -4.73788 3014 ft 120 kts 92°
2026-05-05 18:01 50.43597 -4.72466 3014 ft 119 kts 92°
2026-05-05 18:01 50.43572 -4.71167 3014 ft 119 kts 92°
2026-05-05 18:01 50.43547 -4.69851 3014 ft 119 kts 92°
2026-05-05 18:02 50.43523 -4.68552 3014 ft 119 kts 92°
2026-05-05 18:02 50.43497 -4.67250 3014 ft 118 kts 92°
2026-05-05 18:02 50.43471 -4.65947 3014 ft 117 kts 92°
2026-05-05 18:02 50.43445 -4.64655 3014 ft 117 kts 92°
2026-05-05 18:03 50.43420 -4.63390 3014 ft 116 kts 92°
2026-05-05 18:03 50.43393 -4.62068 3014 ft 116 kts 92°
2026-05-05 18:03 50.43367 -4.60784 3014 ft 116 kts 92°
2026-05-05 18:03 50.43341 -4.59493 3014 ft 116 kts 92°
2026-05-05 18:04 50.43315 -4.58226 3014 ft 116 kts 92°
2026-05-05 18:04 50.43289 -4.56968 3014 ft 116 kts 92°
2026-05-05 18:04 50.43261 -4.55691 3013 ft 116 kts 94°
2026-05-05 18:04 50.43223 -4.54403 3012 ft 116 kts 95°
2026-05-05 18:05 50.43191 -4.53129 3013 ft 115 kts 93°
2026-05-05 18:05 50.43166 -4.51830 3014 ft 116 kts 92°
2026-05-05 18:05 50.43141 -4.50538 3014 ft 116 kts 92°
2026-05-05 18:05 50.43116 -4.49270 3014 ft 116 kts 92°
2026-05-05 18:06 50.43090 -4.47987 3014 ft 116 kts 93°
2026-05-05 18:06 50.43071 -4.47108 3014 ft 116 kts 93°
2026-05-05 18:06 50.43035 -4.45420 3014 ft 116 kts 93°
2026-05-05 18:06 50.43008 -4.44153 3014 ft 116 kts 93°
2026-05-05 18:07 50.42980 -4.42877 3014 ft 116 kts 92°
2026-05-05 18:07 50.42954 -4.41581 3014 ft 116 kts 92°
2026-05-05 18:07 50.42929 -4.40288 3014 ft 116 kts 92°
2026-05-05 18:07 50.42902 -4.39004 3014 ft 116 kts 92°
2026-05-05 18:08 50.42875 -4.37718 3014 ft 116 kts 92°
2026-05-05 18:08 50.42847 -4.36429 3014 ft 116 kts 92°
2026-05-05 18:08 50.42819 -4.35169 3014 ft 116 kts 92°
2026-05-05 18:08 50.42792 -4.33937 3014 ft 116 kts 93°
2026-05-05 18:09 50.42764 -4.32676 3014 ft 116 kts 93°
2026-05-05 18:09 50.42736 -4.31381 3014 ft 116 kts 92°
2026-05-05 18:09 50.42709 -4.30109 3014 ft 116 kts 92°
2026-05-05 18:09 50.42681 -4.28844 3014 ft 116 kts 92°
2026-05-05 18:10 50.42653 -4.27572 3014 ft 116 kts 92°
2026-05-05 18:10 50.42624 -4.26294 3014 ft 116 kts 92°
2026-05-05 18:10 50.42595 -4.25021 3014 ft 116 kts 92°
2026-05-05 18:10 50.42564 -4.23741 3014 ft 116 kts 92°
2026-05-05 18:11 50.42531 -4.22474 3014 ft 116 kts 92°
2026-05-05 18:11 50.42497 -4.21204 3014 ft 116 kts 92°
2026-05-05 18:11 50.42462 -4.19923 3014 ft 116 kts 91°
2026-05-05 18:11 50.42438 -4.18653 3013 ft 115 kts 90°
2026-05-05 18:12 50.42415 -4.17377 3013 ft 115 kts 90°
2026-05-05 18:12 50.42390 -4.16126 3013 ft 115 kts 90°
2026-05-05 18:12 50.42365 -4.14868 3014 ft 115 kts 90°
2026-05-05 18:12 50.42353 -4.13612 3013 ft 115 kts 89°
2026-05-05 18:13 50.42339 -4.12358 3013 ft 115 kts 90°
2026-05-05 18:13 50.42433 -4.11117 3020 ft 114 kts 65°
2026-05-05 18:13 50.42811 -4.10025 3016 ft 114 kts 57°
2026-05-05 18:13 50.43238 -4.08956 3014 ft 115 kts 56°
2026-05-05 18:14 50.43675 -4.07906 3014 ft 115 kts 55°
2026-05-05 18:14 50.44119 -4.06866 3013 ft 115 kts 54°
2026-05-05 18:14 50.44574 -4.05819 3013 ft 115 kts 54°
2026-05-05 18:14 50.45026 -4.04790 3013 ft 115 kts 54°
2026-05-05 18:15 50.45486 -4.03755 3013 ft 115 kts 53°
2026-05-05 18:15 50.45949 -4.02716 3013 ft 115 kts 53°
2026-05-05 18:15 50.46411 -4.01683 3013 ft 115 kts 53°
2026-05-05 18:15 50.46878 -4.00645 3013 ft 115 kts 53°
2026-05-05 18:16 50.47347 -3.99602 3013 ft 115 kts 53°
2026-05-05 18:16 50.47813 -3.98569 3013 ft 115 kts 53°
2026-05-05 18:16 50.48279 -3.97534 3013 ft 115 kts 53°
2026-05-05 18:16 50.48750 -3.96493 3014 ft 116 kts 53°
2026-05-05 18:17 50.49225 -3.95444 3014 ft 118 kts 53°
2026-05-05 18:17 50.49701 -3.94388 3014 ft 118 kts 53°
2026-05-05 18:17 50.50178 -3.93330 3013 ft 119 kts 53°
2026-05-05 18:17 50.50655 -3.92273 3013 ft 119 kts 53°
2026-05-05 18:18 50.51139 -3.91201 3013 ft 119 kts 53°
2026-05-05 18:18 50.51619 -3.90136 3013 ft 119 kts 53°
2026-05-05 18:18 50.52101 -3.89066 3013 ft 119 kts 53°
2026-05-05 18:18 50.52580 -3.88003 3013 ft 119 kts 53°
2026-05-05 18:19 50.53056 -3.86945 3013 ft 119 kts 53°
2026-05-05 18:19 50.53536 -3.85880 3013 ft 119 kts 53°
2026-05-05 18:19 50.54019 -3.84806 3013 ft 119 kts 53°
2026-05-05 18:19 50.54498 -3.83741 3013 ft 119 kts 53°
2026-05-05 18:20 50.54977 -3.82678 3013 ft 119 kts 53°
2026-05-05 18:20 50.55456 -3.81611 3013 ft 119 kts 53°
2026-05-05 18:20 50.55934 -3.80548 3013 ft 119 kts 53°
2026-05-05 18:20 50.56411 -3.79481 2947 ft 118 kts 54°
2026-05-05 18:21 50.56860 -3.78457 2816 ft 109 kts 55°
2026-05-05 18:21 50.57281 -3.77496 2683 ft 102 kts 55°
2026-05-05 18:21 50.57674 -3.76602 2554 ft 97 kts 54°
2026-05-05 18:21 50.58051 -3.75750 2425 ft 93 kts 54°
2026-05-05 18:22 50.58416 -3.74929 2297 ft 90 kts 54°
2026-05-05 18:22 50.58772 -3.74133 2169 ft 88 kts 54°
2026-05-05 18:22 50.59121 -3.73351 2042 ft 86 kts 54°
2026-05-05 18:22 50.59467 -3.72577 1914 ft 86 kts 53°
2026-05-05 18:23 50.59858 -3.71728 1809 ft 107 kts 51°
2026-05-05 18:23 50.60325 -3.70721 1787 ft 117 kts 52°
2026-05-05 18:23 50.60809 -3.69660 1791 ft 121 kts 52°
2026-05-05 18:23 50.61262 -3.68659 1790 ft 124 kts 53°
2026-05-05 18:24 50.61764 -3.67543 1790 ft 125 kts 53°
2026-05-05 18:24 50.62265 -3.66423 1790 ft 126 kts 53°
2026-05-05 18:24 50.62773 -3.65287 1790 ft 126 kts 53°
2026-05-05 18:24 50.63282 -3.64150 1790 ft 127 kts 53°
2026-05-05 18:25 50.63793 -3.63008 1790 ft 127 kts 53°
2026-05-05 18:25 50.64134 -3.62244 1790 ft 128 kts 53°
2026-05-05 18:25 50.64817 -3.60711 1789 ft 126 kts 53°
2026-05-05 18:25 50.65328 -3.59600 1789 ft 126 kts 52°
2026-05-05 18:26 50.65848 -3.58474 1789 ft 126 kts 52°
2026-05-05 18:26 50.66355 -3.57364 1789 ft 125 kts 52°
2026-05-05 18:26 50.66867 -3.56233 1789 ft 125 kts 53°
2026-05-05 18:26 50.67372 -3.55113 1732 ft 127 kts 53°
2026-05-05 18:27 50.67876 -3.53971 1604 ft 125 kts 54°
2026-05-05 18:27 50.68380 -3.52829 1478 ft 126 kts 54°
2026-05-05 18:27 50.68880 -3.51701 1355 ft 127 kts 54°
2026-05-05 18:27 50.69384 -3.50557 1228 ft 121 kts 54°
2026-05-05 18:28 50.70281 -3.48517 1018 ft 107 kts 53°
2026-05-05 18:28 50.70884 -3.47918 918 ft 103 kts
2026-05-05 18:28 50.71560 -3.47833 807 ft 91 kts
2026-05-05 18:29 50.72132 -3.47772 715 ft 76 kts 27°
2026-05-05 18:29 50.72406 -3.47112 612 ft 78 kts 70°
2026-05-05 18:29 50.72581 -3.46269 530 ft 82 kts 67°
2026-05-05 18:29 50.72774 -3.45461 430 ft 72 kts 68°
2026-05-05 18:30 50.72913 -3.44731 326 ft 70 kts 73°
2026-05-05 18:30 50.73034 -3.43954 274 ft 73 kts 75°
2026-05-05 18:30 50.73153 -3.43183 204 ft 70 kts 75°
2026-05-05 18:30 50.73266 -3.42446 114 ft 67 kts 75°
2026-05-05 18:31 50.73373 -3.41760 106 ft 64 kts 71°
2026-05-05 18:31 50.73507 -3.40941 213 ft 78 kts 75°
2026-05-05 18:31 50.73635 -3.40101 439 ft 78 kts 76°
2026-05-05 18:31 50.73748 -3.39230 615 ft 82 kts 86°
2026-05-05 18:32 50.73735 -3.38344 789 ft 80 kts 92°
2026-05-05 18:32 50.73708 -3.37443 971 ft 85 kts 90°
2026-05-05 18:32 50.73711 -3.36489 1151 ft 89 kts 88°
2026-05-05 18:32 50.73719 -3.35487 1330 ft 93 kts 88°
2026-05-05 18:33 50.73728 -3.34443 1510 ft 95 kts 89°
2026-05-05 18:33 50.73738 -3.33382 1688 ft 97 kts 89°
2026-05-05 18:33 50.73747 -3.32296 1866 ft 98 kts 89°
2026-05-05 18:33 50.73755 -3.31179 1933 ft 109 kts 89°
2026-05-05 18:34 50.73774 -3.29900 1921 ft 120 kts 89°
2026-05-05 18:34 50.73799 -3.28535 1917 ft 125 kts 89°
2026-05-05 18:34 50.73826 -3.27125 1916 ft 127 kts 89°
2026-05-05 18:34 50.73852 -3.25725 1915 ft 128 kts 89°
2026-05-05 18:35 50.73878 -3.24310 1912 ft 124 kts 89°
2026-05-05 18:35 50.73903 -3.23003 1911 ft 115 kts 89°
2026-05-05 18:35 50.73931 -3.21539 1912 ft 108 kts 89°
2026-05-05 18:35 50.73955 -3.20361 1913 ft 105 kts 88°
2026-05-05 18:36 50.73973 -3.19215 1913 ft 102 kts 88°
2026-05-05 18:36 50.73986 -3.18083 1913 ft 100 kts 87°
2026-05-05 18:36 50.74018 -3.16988 1913 ft 99 kts 86°
2026-05-05 18:36 50.74051 -3.15905 1913 ft 98 kts 86°
2026-05-05 18:37 50.74084 -3.14825 1913 ft 97 kts 86°
2026-05-05 18:37 50.74117 -3.13752 1914 ft 98 kts 85°
2026-05-05 18:37 50.74151 -3.12623 1918 ft 107 kts 85°
2026-05-05 18:37 50.74188 -3.11401 1916 ft 114 kts 85°
2026-05-05 18:38 50.74226 -3.10131 1915 ft 117 kts 86°
2026-05-05 18:38 50.74266 -3.08823 1914 ft 119 kts 86°
2026-05-05 18:38 50.74307 -3.07502 1914 ft 120 kts 86°
2026-05-05 18:38 50.74348 -3.06174 1914 ft 120 kts 86°
2026-05-05 18:39 50.74387 -3.04853 1914 ft 120 kts 86°
2026-05-05 18:39 50.74427 -3.03524 1914 ft 120 kts 86°
2026-05-05 18:39 50.74466 -3.02195 1914 ft 120 kts 86°
2026-05-05 18:39 50.74505 -3.00875 1914 ft 120 kts 86°
2026-05-05 18:40 50.74543 -2.99547 1914 ft 120 kts 86°
2026-05-05 18:40 50.74580 -2.98226 1913 ft 119 kts 86°
2026-05-05 18:40 50.74616 -2.96925 1913 ft 117 kts 86°
2026-05-05 18:40 50.74652 -2.95632 1913 ft 116 kts 86°
2026-05-05 18:41 50.74686 -2.94361 1913 ft 115 kts 86°
2026-05-05 18:41 50.74719 -2.93089 1914 ft 115 kts 86°
2026-05-05 18:41 50.74752 -2.91822 1914 ft 115 kts 86°
2026-05-05 18:41 50.74784 -2.90560 1914 ft 115 kts 86°
2026-05-05 18:42 50.74816 -2.89302 1914 ft 115 kts 86°
2026-05-05 18:42 50.74848 -2.88024 1914 ft 116 kts 86°
2026-05-05 18:42 50.74880 -2.86738 1914 ft 117 kts 86°
2026-05-05 18:42 50.74911 -2.85445 1914 ft 117 kts 86°
2026-05-05 18:43 50.74941 -2.84164 1914 ft 117 kts 86°
2026-05-05 18:43 50.74972 -2.82875 1914 ft 117 kts 86°
2026-05-05 18:43 50.75001 -2.81584 1914 ft 117 kts 86°
2026-05-05 18:43 50.75031 -2.80293 1914 ft 117 kts 86°
2026-05-05 18:44 50.75060 -2.78987 1914 ft 117 kts 86°
2026-05-05 18:44 50.75088 -2.77694 1913 ft 116 kts 86°
2026-05-05 18:44 50.75116 -2.76421 1913 ft 114 kts 86°
2026-05-05 18:44 50.75143 -2.75159 1913 ft 112 kts 86°
2026-05-05 18:45 50.75168 -2.73926 1913 ft 112 kts 86°
2026-05-05 18:45 50.75193 -2.72696 1914 ft 111 kts 86°
2026-05-05 18:45 50.75217 -2.71471 1914 ft 111 kts 86°
2026-05-05 18:45 50.75241 -2.70227 1914 ft 111 kts 86°
2026-05-05 18:46 50.75263 -2.69013 1914 ft 111 kts 86°
2026-05-05 18:46 50.75286 -2.67783 1914 ft 111 kts 86°
2026-05-05 18:46 50.75308 -2.66562 1914 ft 111 kts 86°
2026-05-05 18:46 50.75330 -2.65334 1914 ft 111 kts 86°
2026-05-05 18:47 50.75351 -2.64094 1914 ft 111 kts 86°
2026-05-05 18:47 50.75372 -2.62872 1914 ft 111 kts 86°
2026-05-05 18:47 50.75392 -2.61637 1914 ft 111 kts 86°
2026-05-05 18:47 50.75412 -2.60370 1914 ft 111 kts 87°
2026-05-05 18:48 50.75432 -2.59129 1914 ft 111 kts 87°
2026-05-05 18:48 50.75451 -2.57905 1914 ft 111 kts 87°
2026-05-05 18:48 50.75470 -2.56683 1914 ft 111 kts 87°
2026-05-05 18:48 50.75490 -2.55421 1914 ft 111 kts 88°
2026-05-05 18:49 50.75510 -2.54211 1914 ft 109 kts 88°
2026-05-05 18:49 50.75531 -2.53011 1914 ft 108 kts 88°
2026-05-05 18:49 50.75551 -2.51812 1914 ft 108 kts 88°
2026-05-05 18:49 50.75571 -2.50625 1914 ft 107 kts 88°
2026-05-05 18:50 50.75590 -2.49446 1913 ft 105 kts 88°
2026-05-05 18:50 50.75608 -2.48313 1913 ft 102 kts 88°
2026-05-05 18:50 50.75625 -2.47200 1913 ft 99 kts 88°
2026-05-05 18:50 50.75641 -2.46098 1913 ft 98 kts 88°
2026-05-05 18:51 50.75655 -2.45014 1915 ft 99 kts 88°
2026-05-05 18:51 50.75670 -2.43918 1915 ft 100 kts 88°
2026-05-05 18:51 50.75684 -2.42799 1915 ft 101 kts 88°
2026-05-05 18:51 50.75698 -2.41686 1912 ft 97 kts 88°
2026-05-05 18:52 50.75711 -2.40602 1912 ft 94 kts 88°
2026-05-05 18:52 50.75722 -2.39566 1915 ft 94 kts 88°
2026-05-05 18:52 50.75716 -2.38501 1916 ft 97 kts 90°
2026-05-05 18:52 50.75692 -2.37419 1916 ft 99 kts 91°
2026-05-05 18:53 50.75667 -2.36304 1915 ft 101 kts 91°
2026-05-05 18:53 50.75648 -2.35162 1915 ft 102 kts 90°
2026-05-05 18:53 50.75633 -2.34036 1915 ft 103 kts 91°
2026-05-05 18:53 50.75614 -2.32892 1915 ft 104 kts 92°
2026-05-05 18:54 50.75588 -2.31750 1915 ft 104 kts 92°
2026-05-05 18:54 50.75559 -2.30596 1915 ft 105 kts 92°
2026-05-05 18:54 50.75530 -2.29418 1915 ft 105 kts 92°
2026-05-05 18:54 50.75501 -2.28258 1915 ft 105 kts 92°
2026-05-05 18:55 50.75471 -2.27103 1915 ft 105 kts 92°
2026-05-05 18:55 50.75441 -2.25937 1915 ft 105 kts 92°
2026-05-05 18:55 50.75412 -2.24799 1913 ft 101 kts 92°
2026-05-05 18:55 50.75383 -2.23684 1913 ft 98 kts 92°
2026-05-05 18:56 50.75355 -2.22623 1912 ft 94 kts 92°
2026-05-05 18:56 50.75329 -2.21613 1912 ft 89 kts 92°
2026-05-05 18:56 50.75303 -2.20651 1912 ft 86 kts 92°
2026-05-05 18:56 50.75277 -2.19730 1912 ft 83 kts 92°
2026-05-05 18:57 50.75251 -2.18819 1914 ft 81 kts 92°
2026-05-05 18:57 50.75210 -2.17926 1915 ft 82 kts 94°
2026-05-05 18:57 50.75162 -2.17016 1915 ft 83 kts 94°
2026-05-05 18:57 50.75114 -2.16086 1915 ft 84 kts 94°
2026-05-05 18:58 50.75064 -2.15158 1915 ft 85 kts 94°
2026-05-05 18:58 50.75014 -2.14215 1915 ft 86 kts 94°
2026-05-05 18:58 50.74963 -2.13269 1915 ft 86 kts 94°
2026-05-05 18:58 50.74911 -2.12303 1915 ft 87 kts 94°
2026-05-05 18:59 50.74860 -2.11339 1915 ft 87 kts 93°
2026-05-05 18:59 50.74824 -2.10382 1915 ft 87 kts 93°
2026-05-05 18:59 50.74783 -2.09400 1839 ft 91 kts 94°
2026-05-05 18:59 50.74742 -2.08405 1712 ft 90 kts 94°
2026-05-05 19:00 50.74704 -2.07435 1584 ft 86 kts 94°
2026-05-05 19:00 50.74669 -2.06509 1451 ft 81 kts 94°
2026-05-05 19:00 50.74635 -2.05643 1320 ft 77 kts 94°
2026-05-05 19:00 50.74656 -2.04817 1190 ft 74 kts 83°
2026-05-05 19:01 50.74733 -2.04028 1059 ft 71 kts 79°
2026-05-05 19:01 50.74845 -2.03282 930 ft 69 kts 75°
2026-05-05 19:01 50.74976 -2.02546 907 ft 72 kts 73°
2026-05-05 19:01 50.75120 -2.01717 898 ft 84 kts 73°
2026-05-05 19:02 50.75285 -2.00766 884 ft 95 kts 73°
2026-05-05 19:02 50.75470 -1.99706 866 ft 103 kts 73°
2026-05-05 19:02 50.75664 -1.98578 843 ft 107 kts 74°
2026-05-05 19:02 50.75831 -1.97556 859 ft 82 kts 74°
2026-05-05 19:03 50.75961 -1.96753 810 ft 69 kts 73°
2026-05-05 19:03 50.76077 -1.96024 733 ft 68 kts 74°
2026-05-05 19:03 50.76193 -1.95284 654 ft 68 kts 74°
2026-05-05 19:03 50.76305 -1.94563 577 ft 67 kts 74°
2026-05-05 19:04 50.76417 -1.93853 503 ft 68 kts 74°
2026-05-05 19:04 50.76532 -1.93114 431 ft 70 kts 74°
2026-05-05 19:04 50.76652 -1.92346 363 ft 71 kts 74°
2026-05-05 19:04 50.76776 -1.91572 340 ft 75 kts 72°
2026-05-05 19:05 50.76918 -1.90750 323 ft 78 kts 72°
2026-05-05 19:05 50.77072 -1.89873 381 ft 86 kts 72°
2026-05-05 19:05 50.77242 -1.88915 420 ft 95 kts 72°
2026-05-05 19:05 50.77404 -1.87929 443 ft 90 kts 73°
2026-05-05 19:06 50.77561 -1.86964 344 ft 87 kts 76°
2026-05-05 19:06 50.77705 -1.86085 150 ft 81 kts 76°
2026-05-05 19:06 50.77835 -1.85287 43 ft 65 kts 75°
2026-05-05 19:06 50.77932 -1.84706 42 ft 46 kts 76°
2026-05-05 19:07 50.78006 -1.84273 42 ft 36 kts 78°
2026-05-05 19:07 50.78072 -1.83932 42 ft 20 kts 39°
2026-05-05 19:07 50.78184 -1.83952 42 ft 14 kts 348°
2026-05-05 19:07 50.78214 -1.83965 42 ft 0 kts 342°
2026-05-05 19:08 50.78219 -1.83967 42 ft 1 kts 347°
2026-05-05 19:08 50.78256 -1.83975 42 ft 9 kts 354°
2026-05-05 19:08 50.78347 -1.84015 42 ft 15 kts 344°
2026-05-05 19:08 50.78441 -1.84057 42 ft 11 kts 341°
2026-05-05 19:09 50.78512 -1.84094 42 ft 10 kts 341°
2026-05-05 19:09 50.78592 -1.84123 42 ft 13 kts 346°
2026-05-05 19:09 50.78685 -1.84161 42 ft 13 kts 346°
2026-05-05 19:09 50.78778 -1.84185 42 ft 13 kts 343°
2026-05-05 19:10 50.78829 -1.84290 42 ft 12 kts 264°
2026-05-05 19:10 50.78801 -1.84382 42 ft 6 kts 249°
2026-05-05 19:10 50.78785 -1.84461 42 ft 9 kts 256°
2026-05-05 19:10 50.78777 -1.84567 42 ft 10 kts 252°
2026-05-05 19:11 50.78736 -1.84633 42 ft 7 kts 231°
2026-05-05 19:11 50.78725 -1.84673 42 ft 0 kts 308°